• Join FlightAware (Why Join?)
  • Login
  • US Flag 
12:11PM EDT


 

Airport Tracker/Info


-or-


 

Live Flight TrackerFlight Track Log ✈ SWA3206 ✈ 02-May-2013 ✈ KSAN - KPHX

Flight Track Log - Related Links

Times and Time Zones

All times are in EDT time to prevent confusion due to time zone crossing. See the SWA3206 flight status page for this flight to view local times or setup timezone preferences in your user account.

Time Position Orientation Groundspeed Altitude Reporting Facility
EDT Latitude Longitude Course Direction KTS MPH feet Rate Location/Type
06:58PM 32.7500 -117.2167 276° West 158 182 1,400  Level Southern California TRACON
06:59PM 32.7564 -117.2925 276° West 205 236 3,600 2,400 Climbing Los Angeles Center
07:00PM 32.7028 -117.3236 206° Southwest 242 278 6,400 2,700 Climbing Los Angeles Center
07:01PM 32.6733 -117.2431 113° Southeast 267 307 9,300 2,400 Climbing Los Angeles Center
07:02PM 32.6506 -117.1467 106° East 294 338 11,500 2,700 Climbing Los Angeles Center
07:03PM 32.6236 -117.0364 106° East 336 387 15,000 3,180 Climbing Los Angeles Center
07:04PM 32.6172 -116.9178 94° East 360 414 18,100 3,240 Climbing Los Angeles Center
07:06PM 32.6433 -116.6372 84° East 397 457 25,200 2,820 Climbing Los Angeles Center
07:07PM 32.6558 -116.5100 83° East 392 451 27,000 1,440 Climbing Los Angeles Center
07:08PM 32.6683 -116.3714 84° East 427 491 28,500 1,740 Climbing Los Angeles Center
07:09PM 32.6875 -116.1731 83° East 440 506 31,000 1,200 Climbing Los Angeles Center
07:10PM 32.7008 -116.0328 84° East 434 499 31,000  Level Los Angeles Center
07:11PM 32.7136 -115.8939 84° East 428 493 31,000  Level Los Angeles Center
07:12PM 32.7272 -115.7544 83° East 428 493 31,000  Level Los Angeles Center
07:13PM 32.7392 -115.6161 84° East 424 488 31,000  Level Los Angeles Center
07:14PM 32.7503 -115.4442 86° East 439 505 31,000  Level Los Angeles Center
07:16PM 32.7536 -115.2944 88° East 452 520 31,000  Level Los Angeles Center
07:17PM 32.7600 -115.1433 87° East 459 528 31,000  Level Los Angeles Center
07:18PM 32.7625 -114.9947 89° East 453 521 31,000  Level Los Angeles Center
07:19PM 32.7667 -114.8439 88° East 458 527 31,000  Level Los Angeles Center
07:20PM 32.7700 -114.6628 89° East 460 529 31,000  Level Los Angeles Center
07:21PM 32.7714 -114.5128 89° East 457 526 31,000 -540 Level Los Angeles Center
07:22PM 32.7736 -114.3614 89° East 458 527 29,900 -1,860 Descending Los Angeles Center
07:23PM 32.7750 -114.2106 89° East 458 527 27,200 -2,340 Descending Los Angeles Center
07:24PM 32.7756 -114.0467 90° East 442 509 25,000 -1,080 Descending Albuquerque Center
07:25PM 32.7836 -113.9069 86° East 425 489 25,000  Level Albuquerque Center
07:26PM 32.8061 -113.7697 79° East 422 486 25,000  Level Albuquerque Center
07:27PM 32.8483 -113.6464 68° East 406 467 25,000  Level Albuquerque Center
07:28PM 32.9242 -113.5431 49° Northeast 406 467 25,000 -720 Level Albuquerque Center
07:29PM 32.9983 -113.4436 48° Northeast 402 463 23,600 -1,860 Descending Albuquerque Center
07:30PM 33.0722 -113.3444 48° Northeast 401 461 21,300 -2,400 Descending Albuquerque Center
07:31PM 33.1578 -113.2261 49° Northeast 397 457 18,700 -2,340 Descending Albuquerque Center
07:32PM 33.2264 -113.1336 48° Northeast 386 444 16,600 -1,860 Descending Albuquerque Center
07:33PM 33.2761 -113.0356 59° Northeast 362 417 15,000 -1,740 Descending Albuquerque Center
07:34PM 33.2781 -112.9239 89° East 338 389 13,100 -1,620 Descending Albuquerque Center
07:35PM 33.2822 -112.8164 87° East 329 379 11,700 -1,440 Descending Albuquerque Center
07:36PM 33.3156 -112.7256 66° East 304 350 10,200 -1,140 Descending Albuquerque Center
07:37PM 33.3447 -112.6439 67° East 277 319 9,400 -1,020 Descending Albuquerque Center
07:38PM 33.3742 -112.5714 64° Northeast 255 293 8,200 -720 Descending Albuquerque Center
07:39PM 33.4094 -112.4811 65° Northeast 249 287 8,000 -780 Descending Albuquerque Center
07:40PM 33.4308 -112.4025 72° East 251 289 6,700 -1,080 Descending Albuquerque Center
07:41PM 33.4289 -112.3203 92° East 246 283 5,900 -1,080 Descending Albuquerque Center
07:42PM 33.4289 -112.2411 90° East 241 277 4,500 -1,260 Descending Albuquerque Center
07:43PM 33.4283 -112.1672 90° East 227 261 3,400 -1,080 Descending Albuquerque Center
07:44PM 33.4286 -112.1086 90° East 184 212 2,400 -840 Descending Albuquerque Center
07:45PM 33.4289 -112.0617 90° East 147 169 1,700 -660 Descending Albuquerque Center
07:46PM 33.4286 -112.0133 90° East 135 155 1,100 -600 Descending Albuquerque Center
07:48PM 33.4333 -112.0000 90° East  Level FlightAware Approximate